Flag for Bahamas Weather past 2 weeks in Nassau, Bahamas

Now
77 °F

Passing clouds.


Feels Like: 78 °F
Forecast: 76 / 83 °F
Wind: 9 mph from Southwest

Location: Nassau Airport


UV Index: 5 (Moderate)

Visibility: N/A


Pressure: 29.96 "Hg

Humidity: 83%

Dew point: 72 °F

Location of NassauLocation

Historic Weather in Nassau

°F

Nassau temperature yesterday

Maximum temperature yesterday: 86 °F (at 2:00 PM)
Minimum temperature yesterday: 77 °F (at 1:00 AM)
Average temperature yesterday: 80 °F

Past Weeks' High & Low Weather Summary

 TemperatureHumidityPressure
High86 °F (Apr 7, 2:00 PM)94% (Apr 5, 5:00 AM)32.01 "Hg (Apr 5, 5:00 AM)
Low66 °F (Apr 1, 7:00 AM)44% (Apr 10, 4:00 PM)29.87 "Hg (Apr 8, 4:00 PM)
Average76 °F71%30.07 "Hg
* Reported Apr 1 6:00 AM — Apr 16 6:00 AM, Nassau, Weather by CustomWeather, © 2014

Note: Actual official high and low records may vary slightly from our data, if they occured in-between our weather recording intervals... More about our weather records

Advertising

Historic Weather Conditions — Data for Previous 24 hours

 ConditionsComfort  
Time TempWeatherWind HumidityBarometerVisibility
6:00 AM
Apr 16
77 °FPassing clouds.9 mph83%29.96 "HgN/A
5:00 AM79 °FPassing clouds.7 mph84%29.94 "HgN/A
4:00 AM77 °FPassing clouds.6 mph83%29.94 "HgN/A
1:00 AM77 °FPassing clouds.6 mph83%29.97 "HgN/A
12:00 AM77 °FPassing clouds.5 mph83%29.99 "HgN/A
11:00 PM
Apr 15
79 °FPassing clouds.5 mph84%29.98 "HgN/A
10:00 PM79 °FPassing clouds.5 mph79%29.99 "HgN/A
9:00 PM79 °FPassing clouds.5 mph79%29.97 "HgN/A
7:00 PM81 °FScattered clouds.16 mph70%29.92 "HgN/A
6:00 PM81 °FScattered clouds.16 mph70%29.93 "HgN/A
5:00 PM82 °FPassing clouds.18 mph74%29.91 "HgN/A
4:00 PM82 °FScattered clouds.16 mph66%29.91 "HgN/A
3:00 PM84 °FScattered clouds.16 mph62%29.94 "HgN/A
2:00 PM86 °FScattered clouds.13 mph66%29.95 "HgN/A
12:00 PM82 °FScattered clouds.15 mph66%29.98 "HgN/A
11:00 AM82 °FScattered clouds.13 mph74%29.99 "HgN/A
10:00 AM81 °FScattered clouds.N/A70%29.99 "HgN/A
9:00 AM81 °FScattered clouds.10 mph70%29.98 "HgN/A
8:00 AM79 °FScattered clouds.7 mph84%29.98 "HgN/A
7:00 AM77 °FPassing clouds.5 mph83%29.96 "HgN/A
6:00 AM77 °FPassing clouds.5 mph83%29.94 "HgN/A
Weather by CustomWeather, © 2014

See weather overview